This is the latest recevied weather packets stored in our database for station/object LU3GHF-13. If no packets are shown the sender has not sent any weather packets the latest 10 day(s).
| Time | Temp. | Humidity | Pressure | Rain* | Wind** | Luminosity | Snow |
|---|---|---|---|---|---|---|---|
| 1788536604 | 22.22° C | 48% | 1010.8 hPa | - | - | - | - |
| 1788535978 | 21.67° C | 49% | 1011 hPa | - | - | - | - |
| 1788535332 | 21.11° C | 50% | 1011.3 hPa | - | - | - | - |
| 1788534730 | 20.56° C | 50% | 1011.6 hPa | - | - | - | - |
| 1788534076 | 20.56° C | 49% | 1011.8 hPa | - | - | - | - |
| 1788533422 | 20° C | 50% | 1012 hPa | - | - | - | - |
| 1788532763 | 20° C | 52% | 1012.2 hPa | - | - | - | - |
| 1788532175 | 20° C | 50% | 1012.2 hPa | - | - | - | - |
| 1788531509 | 20.56° C | 50% | 1012.1 hPa | - | - | - | - |
| 1788530891 | 20.56° C | 52% | 1012.1 hPa | - | - | - | - |
| 1788530261 | 20° C | 53% | 1012 hPa | - | - | - | - |
| 1788529651 | 20° C | 52% | 1012.3 hPa | - | - | - | - |
| 1788529024 | 20° C | 53% | 1012.4 hPa | - | - | - | - |
| 1788528404 | 19.44° C | 57% | 1012.5 hPa | - | - | - | - |
| 1788527802 | 20° C | 57% | 1012.5 hPa | - | - | - | - |
| 1788527176 | 18.89° C | 58% | 1013.1 hPa | - | - | - | - |
| 1788526549 | 19.44° C | 58% | 1013.1 hPa | - | - | - | - |
| 1788525925 | 19.44° C | 59% | 1012.8 hPa | - | - | - | - |
| 1788525317 | 19.44° C | 61% | 1012.9 hPa | - | - | - | - |
| 1788524698 | 18.89° C | 62% | 1012.7 hPa | - | - | - | - |
| 1788524097 | 18.33° C | 63% | 1012.8 hPa | - | - | - | - |
| 1788523437 | 18.33° C | 66% | 1012.9 hPa | - | - | - | - |
| 1788522790 | 17.78° C | 66% | 1012.8 hPa | - | - | - | - |
| 1788522168 | 17.78° C | 67% | 1012.8 hPa | - | - | - | - |
| 1788521546 | 17.78° C | 67% | 1012.5 hPa | - | - | - | - |
* Rain since midnight (hover to see other rain measurements)
** Current wind speed in m/s (hover to see current wind gust speed)